Grapevine, CA Past Weather

Last 30 Days

High: 35ºf @3:13 AM    Low: 34ºf @6:13 AM     Approx. Precipitation / Rain Total: in.
Time (PST)Temp. (ºf)Humidity (%)Dew Point (ºf)Barometer (inHG)Wind Speed (mph)Wind DirectionWind Gust (mph)1hr. Precip / Rain Total (in.)Snow Depth
7:13 AM3510035-6.95sse13.9--
6:13 AM3410034-9.56sse16.51--
5:13 AM3510035-6.95sse12.17--
4:13 AM3410034-3.48sse11.3--
3:13 AM359333.18-2.61ssw6.08--
2:13 AM359633.98-3.48sse17.38--
1:13 AM3510035-9.56s13.9--
12:13 AM3510035-6.95sse9.56--
High: 50ºf @1:13 PM    Low: 36ºf @11:13 PM     Approx. Precipitation / Rain Total: in.
Time (PST)Temp. (ºf)Humidity (%)Dew Point (ºf)Barometer (inHG)Wind Speed (mph)Wind DirectionWind Gust (mph)1hr. Precip / Rain Total (in.)Snow Depth
11:13 PM3610036-5.21sse9.56--
10:13 PM3610036-6.08sse9.56--
9:13 PM3710037-2.61s4.34--
8:13 PM3810038-1.74sw7.82--
7:13 PM3810038-4.34s14.77--
6:13 PM399738.22-11.3sse18.25--
5:13 PM417834.68-13.03s18.25--
4:13 PM456031.96-10.43sse18.25--
3:13 PM474627.31-10.43sse16.51--
2:13 PM494327.49-10.43s14.77--
1:13 PM504026.64-10.43s19.12--
12:13 PM504227.82-13.03s25.2--
11:13 AM494126.34-15.64s24.33--
10:13 AM474225.11-14.77s23.46--
9:13 AM444322.96-13.9sse19.99--
8:13 AM424522.22-13.03sse19.12--
7:13 AM394720.5-12.17sse17.38--
6:13 AM374819.16-12.17sse18.25--
5:13 AM384719.58-13.03sse19.12--
4:13 AM384619.08-14.77sse20.86--
3:13 AM384518.57-13.03s19.99--
2:13 AM384518.57-15.64s21.72--
1:13 AM394519.48-15.64sse21.72--
12:13 AM394519.48-15.64s20.86--
High: 46ºf @2:13 PM    Low: 30ºf @6:13 AM     Approx. Precipitation / Rain Total: in.
Time (PST)Temp. (ºf)Humidity (%)Dew Point (ºf)Barometer (inHG)Wind Speed (mph)Wind DirectionWind Gust (mph)1hr. Precip / Rain Total (in.)Snow Depth
11:13 PM394620-13.03sse19.12--
10:13 PM404419.87-15.64sse22.59--
9:13 PM414219.69-16.51sse24.33--
8:13 PM414219.69-15.64sse21.72--
7:13 PM414320.24-14.77sse22.59--
6:13 PM414420.78-13.03sse19.12--
5:13 PM424522.22-11.3sse16.51--
4:13 PM444423.5-12.17sse19.12--
3:13 PM464525.86-12.17sse19.12--
2:13 PM464827.42-10.43sse15.64--
1:13 PM465128.9-10.43sse17.38--
12:13 PM464626.39-12.17sse19.99--
11:13 AM455228.45-12.17s17.38--
10:13 AM426631.48-4.34s7.82--
9:13 AM397431.43-2.61ene6.95--
8:13 AM369033.36-4.34n8.69--
7:13 AM3310033-6.08n8.69--
6:13 AM3010030-4.34nnw6.95--
5:13 AM3110031-1.74n8.69--
4:13 AM3110031-4.34n7.82--
3:13 AM3110031-4.34n8.69--
2:13 AM3210032-4.34n15.64--
1:13 AM3310033-6.95n17.38--
12:13 AM368832.8-6.95n13.9--
High: 49ºf @10:13 AM    Low: 36ºf @11:13 PM     Approx. Precipitation / Rain Total: in.
Time (PST)Temp. (ºf)Humidity (%)Dew Point (ºf)Barometer (inHG)Wind Speed (mph)Wind DirectionWind Gust (mph)1hr. Precip / Rain Total (in.)Snow Depth
11:13 PM368030.44-7.82n15.64--
10:13 PM377931.1-6.08n12.17--
9:13 PM387932.08-5.21n13.9--
8:13 PM387631.12-5.21n12.17--
7:13 PM387430.46-6.95n12.17--
6:13 PM387129.45-5.21-11.3--
5:13 PM396829.35-6.08n14.77--
4:13 PM416028.19-6.95n13.03--
3:13 PM435628.39-7.82n15.64--
2:13 PM445127.05-8.69n14.77--
1:13 PM474928.84-5.21n13.03--
12:13 PM474526.77-6.08-13.9--
11:13 AM484125.44-5.21n10.43--
10:13 AM493925.13-2.61n7.82--
9:13 AM455027.49-5.21n13.03--
8:13 AM444121.83-2.61n9.56--
7:13 AM414521.31-3.48n8.69--
6:13 AM395725.07-6.08n10.43--
5:13 AM395825.49-6.95n9.56--
4:13 AM423818.26-2.61n7.82--
3:13 AM433718.53-4.34n8.69--
2:13 AM433718.53-5.21n7.82--
1:13 AM463217.81-1.74nnw6.08--
12:13 AM463217.81-3.48wsw6.95--
High: 60ºf @12:13 PM    Low: 46ºf @2:13 AM     Approx. Precipitation / Rain Total: in.
Time (PST)Temp. (ºf)Humidity (%)Dew Point (ºf)Barometer (inHG)Wind Speed (mph)Wind DirectionWind Gust (mph)1hr. Precip / Rain Total (in.)Snow Depth
11:13 PM463117.08-1.74n6.08--
10:13 PM472815.61-1.74n6.95--
9:13 PM472311.15-2.61nw6.08--
8:13 PM472311.15-3.48nw7.82--
7:13 PM482311.99-2.61nw7.82--
6:13 PM472916.41-2.61nnw6.08--
5:13 PM482715.63-2.61n5.21--
4:13 PM512516.43-1.74nnw6.95--
3:13 PM541811.47-4.34nnw6.95--
2:13 PM561914.34-3.48nnw7.82--
1:13 PM591612.89-3.48n7.82--
12:13 PM601512.24-3.48nw7.82--
11:13 AM582320.42-3.48s12.17--
10:13 AM542619.9-7.82sse13.9--
9:13 AM522819.92-8.69sse13.03--
8:13 AM492918.15-7.82sse13.03--
7:13 AM472916.41-7.82sse13.03--
6:13 AM472714.78-9.56sse13.9--
5:13 AM472613.92-8.69sse13.03--
4:13 AM472412.1-8.69sse12.17--
3:13 AM48163.98-7.82se10.43--
2:13 AM46218.28-0.87ene4.34--
1:13 AM47208.04-2.61nne4.34--
12:13 AM47151.79-0.87nnw4.34--
High: 57ºf @12:13 PM    Low: 44ºf @6:13 PM     Approx. Precipitation / Rain Total: in.
Time (PST)Temp. (ºf)Humidity (%)Dew Point (ºf)Barometer (inHG)Wind Speed (mph)Wind DirectionWind Gust (mph)1hr. Precip / Rain Total (in.)Snow Depth
11:13 PM47208.04-3.48n5.21--
10:13 PM472311.15-2.61n5.21--
9:13 PM472311.15-4.34nw6.08--
8:13 PM452511.32-2.61nnw7.82--
7:13 PM452914.68-3.48nnw7.82--
6:13 PM443920.65-2.61nnw9.56--
5:13 PM463117.08-6.08n11.3--
4:13 PM492312.84-5.21n9.56--
3:13 PM512314.52-6.08n9.56--
2:13 PM522214.35-4.34n13.03--
1:13 PM542518.99-6.95nne12.17--
12:13 PM572218.54-3.48n10.43--
11:13 AM562116.63-4.34n10.43--
10:13 AM541912.69-6.08nne9.56--
9:13 AM531911.87-5.21n9.56--
8:13 AM502010.53-5.21n11.3--
7:13 AM49187.37-5.21n8.69--
6:13 AM49187.37-6.08n9.56--
5:13 AM50165.61-3.48n7.82--
4:13 AM49176.12-3.48n9.56--
3:13 AM48175.3-3.48n8.69--
2:13 AM49176.12-3.48n8.69--
1:13 AM50165.61-4.34n8.69--
12:13 AM48197.74-6.08n10.43--
High: 58ºf @1:13 PM    Low: 44ºf @6:13 AM     Approx. Precipitation / Rain Total: in.
Time (PST)Temp. (ºf)Humidity (%)Dew Point (ºf)Barometer (inHG)Wind Speed (mph)Wind DirectionWind Gust (mph)1hr. Precip / Rain Total (in.)Snow Depth
11:13 PM48186.55-6.08n10.43--
10:13 PM48186.55-6.08n10.43--
9:13 PM49176.12-7.82n9.56--
8:13 PM49176.12-6.08n9.56--
7:13 PM49187.37-4.34n10.43--
6:13 PM48186.55-6.95n11.3--
5:13 PM49209.7-7.82nne10.43--
4:13 PM522113.3-4.34n7.82--
3:13 PM54168.85-3.48nne6.08--
2:13 PM58101.76-4.34wnw9.56--
1:13 PM58125.7-5.21s13.9--
12:13 PM57136.67-10.43sse18.25--
11:13 AM54145.91-13.03s19.99--
10:13 AM53145.11-13.9s21.72--
9:13 AM51155.01-13.03sse20.86--
8:13 AM49153.4-14.77sse21.72--
7:13 AM46162.36-13.9sse19.99--
6:13 AM44172.03-14.77sse25.2--
5:13 AM45161.55-17.38sse25.2--
4:13 AM45161.55-17.38sse24.33--
3:13 AM45161.55-18.25sse25.2--
2:13 AM45161.55-19.12sse27.81--
1:13 AM45161.55-19.12sse29.55--
12:13 AM46162.36-17.38sse26.07--
High: 53ºf @2:13 PM    Low: 46ºf @11:13 PM     Approx. Precipitation / Rain Total: in.
Time (PST)Temp. (ºf)Humidity (%)Dew Point (ºf)Barometer (inHG)Wind Speed (mph)Wind DirectionWind Gust (mph)1hr. Precip / Rain Total (in.)Snow Depth
11:13 PM46150.98-17.38sse24.33--
10:13 PM46162.36-16.51sse26.07--
9:13 PM46162.36-19.12sse26.07--
8:13 PM46162.36-19.12sse25.2--
7:13 PM47151.79-16.51sse25.2--
6:13 PM47140.31-15.64sse25.2--
5:13 PM4912-1.36-14.77sse20.86--
4:13 PM52132.71-13.9s22.59--
3:13 PM53133.5-18.25sse27.81--
2:13 PM53133.5-19.99sse31.28--
1:13 PM53133.5-22.59sse36.5--
12:13 PM51131.92-26.07s36.5--
11:13 AM52132.71-24.33sse34.76--
10:13 AM50142.71-23.46sse36.5--
9:13 AM49141.91-25.2s37.37--
8:13 AM48163.98-23.46sse33.89--
7:13 AM46173.66-22.59s32.15--
6:13 AM47196.91-21.72sse29.55--
5:13 AM47196.91-19.99sse29.55--
4:13 AM49187.37-18.25sse28.68--
3:13 AM50188.19-18.25sse27.81--
2:13 AM50188.19-18.25sse27.81--
1:13 AM51177.75-18.25sse26.94--
12:13 AM52189.83-14.77sse22.59--
High: 61ºf @12:13 PM    Low: 43ºf @1:13 AM     Approx. Precipitation / Rain Total: in.
Time (PST)Temp. (ºf)Humidity (%)Dew Point (ºf)Barometer (inHG)Wind Speed (mph)Wind DirectionWind Gust (mph)1hr. Precip / Rain Total (in.)Snow Depth
11:13 PM531810.65-13.9sse19.12--
10:13 PM531911.87-10.43sse15.64--
9:13 PM531911.87-8.69sse15.64--
8:13 PM52189.83-12.17sse17.38--
7:13 PM531911.87-12.17sse15.64--
6:13 PM531911.87-9.56sse13.9--
5:13 PM531911.87-8.69sse13.9--
4:13 PM542216.03-9.56sse13.9--
3:13 PM552620.76-6.08sse9.56--
2:13 PM572319.58-4.34sse7.82--
1:13 PM601613.7-5.21sse7.82--
12:13 PM612019.65-2.61e4.34--
11:13 AM592725.07-2.61s5.21--
10:13 AM592018-0.87sw6.08--
9:13 AM53145.11-3.48n7.82--
8:13 AM50165.61-3.48n8.69--
7:13 AM46196.08-4.34nnw7.82--
6:13 AM46162.36-4.34n8.69--
5:13 AM46162.36-6.95-11.3--
4:13 AM499-7.33-5.21nnw7.82--
3:13 AM47140.31-4.34nnw7.82--
2:13 AM44205.54-4.34nw6.95--
1:13 AM43171.21-4.34n9.56--
12:13 AM4415-0.63-4.34nnw8.69--
High: 60ºf @1:13 PM    Low: 41ºf @7:13 PM     Approx. Precipitation / Rain Total: in.
Time (PST)Temp. (ºf)Humidity (%)Dew Point (ºf)Barometer (inHG)Wind Speed (mph)Wind DirectionWind Gust (mph)1hr. Precip / Rain Total (in.)Snow Depth
11:13 PM47151.79-3.48nnw7.82--
10:13 PM48163.98-4.34n7.82--
9:13 PM506-14.71-3.48nnw8.69--
8:13 PM4613-2.05-3.48nw7.82--
7:13 PM414219.69-4.34nnw9.56--
6:13 PM4414-2.09-3.48n8.69--
5:13 PM45150.17-6.08n7.82--
4:13 PM4712-2.93-5.21n6.95--
3:13 PM51143.51-5.21n6.08--
2:13 PM54145.91-2.61nne4.34--
1:13 PM601816.39-1.74ssw6.95--
12:13 PM57136.67-5.21s10.43--
11:13 AM55135.09-6.95s11.3--
10:13 AM54122.57-6.95sse11.3--
9:13 AM52121-8.69sse12.17--
8:13 AM4912-1.36-8.69sse13.03--
7:13 AM4513-2.84-11.3sse13.9--
6:13 AM4414-2.09-12.17sse15.64--
5:13 AM4415-0.63-12.17sse17.38--
4:13 AM4415-0.63-13.9sse19.12--
3:13 AM4415-0.63-13.03sse20.86--
2:13 AM45150.17-13.9sse17.38--
1:13 AM4614-0.49-10.43se13.03--
12:13 AM45150.17-9.56se13.03--
High: 54ºf @1:13 PM    Low: 43ºf @6:13 AM     Approx. Precipitation / Rain Total: in.
Time (PST)Temp. (ºf)Humidity (%)Dew Point (ºf)Barometer (inHG)Wind Speed (mph)Wind DirectionWind Gust (mph)1hr. Precip / Rain Total (in.)Snow Depth
11:13 PM45150.17-10.43sse12.17--
10:13 PM4614-0.49-8.69sse13.03--
9:13 PM4614-0.49-9.56sse12.17--
8:13 PM4614-0.49-8.69sse12.17--
7:13 PM4713-1.25-8.69se10.43--
6:13 PM4713-1.25-7.82sse11.3--
5:13 PM47140.31-6.95sse11.3--
4:13 PM48141.11-8.69sse13.03--
3:13 PM49130.33-9.56sse15.64--
2:13 PM51131.92-10.43sse19.12--
1:13 PM54122.57-13.03s21.72--
12:13 PM54122.57-14.77sse21.72--
11:13 AM52121-15.64s23.46--
10:13 AM52121-14.77sse20.86--
9:13 AM5012-0.57-13.9sse18.25--
8:13 AM4813-0.46-13.03sse18.25--
7:13 AM4413-3.64-13.03sse18.25--
6:13 AM4313-4.43-13.9sse16.51--
5:13 AM4412-5.3-12.17sse16.51--
4:13 AM4412-5.3-12.17sse15.64--
3:13 AM4412-5.3-11.3se15.64--
2:13 AM4511-6.3-12.17se15.64--
1:13 AM4512-4.51-12.17sse15.64--
12:13 AM4512-4.51-12.17sse14.77--
High: 52ºf @2:13 PM    Low: 38ºf @2:13 AM     Approx. Precipitation / Rain Total: in.
Time (PST)Temp. (ºf)Humidity (%)Dew Point (ºf)Barometer (inHG)Wind Speed (mph)Wind DirectionWind Gust (mph)1hr. Precip / Rain Total (in.)Snow Depth
11:13 PM4512-4.51-12.17sse14.77--
10:13 PM4512-4.51-10.43sse13.9--
9:13 PM4611-5.52-10.43sse13.9--
8:13 PM4610-7.48-10.43sse13.9--
7:13 PM4612-3.72-7.82sse10.43--
6:13 PM4514-1.29-6.95sse8.69--
5:13 PM47140.31-6.95sse9.56--
4:13 PM50176.93-6.08sse12.17--
3:13 PM51143.51-10.43sse16.51--
2:13 PM52132.71-11.3s18.25--
1:13 PM52121-13.9s22.59--
12:13 PM51120.21-16.51s27.81--
11:13 AM49130.33-19.12s30.41--
10:13 AM4713-1.25-19.99s31.28--
9:13 AM4514-1.29-19.12sse27.81--
8:13 AM4314-2.89-19.12sse28.68--
7:13 AM4016-2.52-17.38sse23.46--
6:13 AM3916-3.33-17.38sse22.59--
5:13 AM3916-3.33-17.38sse24.33--
4:13 AM3916-3.33-17.38sse23.46--
3:13 AM3917-2.07-15.64sse21.72--
2:13 AM3818-1.69-15.64sse25.2--
1:13 AM3818-1.69-18.25sse24.33--
12:13 AM3917-2.07-17.38sse26.94--
High: 47ºf @3:13 PM    Low: 36ºf @7:13 AM     Approx. Precipitation / Rain Total: in.
Time (PST)Temp. (ºf)Humidity (%)Dew Point (ºf)Barometer (inHG)Wind Speed (mph)Wind DirectionWind Gust (mph)1hr. Precip / Rain Total (in.)Snow Depth
10:13 PM3917-2.07-13.03sse19.99--
9:13 PM4016-2.52-12.17sse20.86--
8:13 PM4115-3.06-17.38se24.33--
7:13 PM4117-0.43-15.64sse22.59--
6:13 PM42181.61-15.64sse21.72--
5:13 PM43182.43-14.77sse24.33--
4:13 PM46184.9-16.51sse26.07--
3:13 PM47196.91-15.64sse28.68--
2:13 PM47208.04-19.12sse28.68--
1:13 PM47208.04-19.12sse29.55--
12:13 PM46229.31-17.38s28.68--
11:13 AM452410.41-19.12sse30.41--
10:13 AM422710.47-21.72sse29.55--
9:13 AM412810.42-17.38sse27.81--
8:13 AM393110.96-17.38sse25.2--
7:13 AM363410.39-16.51sse24.33--
6:13 AM363511.03-15.64sse25.2--
5:13 AM363410.39-15.64sse25.2--
4:13 AM383210.79-14.77sse24.33--
3:13 AM403011.1-17.38sse29.55--
2:13 AM412810.42-15.64sse26.07--
1:13 AM422811.29-16.51sse26.94--
12:13 AM412911.21-12.17sse19.12--
High: 58ºf @12:13 PM    Low: 41ºf @2:13 AM     Approx. Precipitation / Rain Total: in.
Time (PST)Temp. (ºf)Humidity (%)Dew Point (ºf)Barometer (inHG)Wind Speed (mph)Wind DirectionWind Gust (mph)1hr. Precip / Rain Total (in.)Snow Depth
11:13 PM422811.29-12.17sse18.25--
10:13 PM452410.41-13.03se19.99--
9:13 PM442611.35-7.82se20.86--
8:13 PM452612.2-10.43sse13.9--
7:13 PM462411.26-10.43se14.77--
6:13 PM452612.2-11.3sse15.64--
5:13 PM463117.08-10.43sse13.03--
4:13 PM483722.98-6.95se9.56--
3:13 PM504127.24-4.34sse6.08--
2:13 PM495031.18-1.74ese6.08--
1:13 PM544935.28-2.61sse5.21--
12:13 PM582320.42-0.87sw5.21--
10:13 AM462915.55-5.21n9.56--
7:13 AM452410.41-5.21nne8.69--
6:13 AM423415.69-7.82n9.56--
4:13 AM423113.58-3.48nnw8.69--
3:13 AM422811.29-4.34nnw9.56--
2:13 AM413112.71-4.34n8.69--
1:13 AM43248.71-4.34n7.82--
12:13 AM44227.63-4.34nnw8.69--
High: 54ºf @1:13 PM    Low: 42ºf @7:13 PM     Approx. Precipitation / Rain Total: in.
Time (PST)Temp. (ºf)Humidity (%)Dew Point (ºf)Barometer (inHG)Wind Speed (mph)Wind DirectionWind Gust (mph)1hr. Precip / Rain Total (in.)Snow Depth
11:13 PM44238.61-4.34n7.82--
10:13 PM45206.37-4.34n8.69--
9:13 PM46218.28-4.34n7.82--
8:13 PM434322.05-3.48nnw10.43--
7:13 PM425527.02-6.95n12.17--
6:13 PM435527.95-8.69n10.43--
4:13 PM512213.51-2.61sse8.69--
3:13 PM521911.04-6.95s13.9--
2:13 PM541710.19-10.43s16.51--
1:13 PM54168.85-12.17s19.12--
12:13 PM54168.85-13.03s18.25--
11:13 AM53179.38-13.9s20.86--
10:13 AM51189.01-13.9s21.72--
9:13 AM49187.37-13.03sse19.99--
8:13 AM47196.91-12.17s17.38--
7:13 AM44216.61-12.17sse19.12--
6:13 AM43215.77-13.03sse19.12--
5:13 AM42214.93-12.17sse20.86--
3:13 AM43215.77-13.9sse20.86--
2:13 AM43204.71-13.9sse19.99--
1:13 AM43204.71-13.03sse19.99--
12:13 AM43204.71-13.03sse20.86--
High: 50ºf @2:13 PM    Low: 36ºf @6:13 AM     Approx. Precipitation / Rain Total: in.
Time (PST)Temp. (ºf)Humidity (%)Dew Point (ºf)Barometer (inHG)Wind Speed (mph)Wind DirectionWind Gust (mph)1hr. Precip / Rain Total (in.)Snow Depth
11:13 PM43204.71-14.77sse21.72--
9:13 PM43204.71-14.77sse20.86--
8:13 PM43204.71-13.9sse21.72--
7:13 PM44205.54-14.77sse20.86--
6:13 PM45195.25-14.77sse19.99--
5:13 PM47185.73-12.17sse22.59--
4:13 PM49176.12-15.64sse27.81--
3:13 PM49176.12-18.25sse28.68--
2:13 PM50188.19-19.99sse32.15--
1:13 PM49209.7-17.38s26.07--
12:13 PM482210.99-17.38sse26.94--
11:13 AM472311.15-16.51sse25.2--
10:13 AM44249.56-18.25s26.94--
9:13 AM42258.76-18.25sse27.81--
8:13 AM40278.75-17.38sse26.07--
7:13 AM38298.6-16.51sse25.2--
6:13 AM36318.33-17.38sse26.07--
5:13 AM37297.73-20.86sse28.68--
4:13 AM37286.96-16.51sse25.2--
3:13 AM383210.79-19.12se27.81--
2:13 AM393413.04-17.38sse30.41--
1:13 AM403413.92-19.12se29.55--
12:13 AM413213.43-13.9se29.55--
High: 49ºf @1:13 PM    Low: 39ºf @2:13 AM     Approx. Precipitation / Rain Total: in.
Time (PST)Temp. (ºf)Humidity (%)Dew Point (ºf)Barometer (inHG)Wind Speed (mph)Wind DirectionWind Gust (mph)1hr. Precip / Rain Total (in.)Snow Depth
11:13 PM413112.71-15.64se26.94--
10:13 PM423113.58-18.25sse26.94--
9:13 PM423113.58-13.9se24.33--
8:13 PM432912.94-15.64se26.07--
7:13 PM432912.94-16.51se25.2--
6:13 PM432912.94-14.77se22.59--
5:13 PM452713.06-13.9se26.07--
4:13 PM472815.61-12.17se21.72--
3:13 PM482917.28-13.03se24.33--
2:13 PM483219.57-12.17se22.59--
1:13 PM493220.44-13.9se30.41--
12:13 PM483420.99-14.77se29.55--
11:13 AM463620.56-18.25sse30.41--
10:13 AM443719.42-21.72sse33.02--
9:13 AM433819.15-23.46sse33.89--
8:13 AM423918.86-18.25sse26.07--
7:13 AM404118.22-16.51sse25.2--
6:13 AM394318.42-16.51sse25.2--
5:13 AM394318.42-16.51sse25.2--
4:13 AM394217.88-16.51sse25.2--
3:13 AM404118.22-17.38sse24.33--
2:13 AM394117.32-16.51sse24.33--
1:13 AM404017.65-13.9sse20.86--
12:13 AM414018.55-14.77sse20.86--
High: 52ºf @1:13 PM    Low: 40ºf @12:13 AM     Approx. Precipitation / Rain Total: in.
Time (PST)Temp. (ºf)Humidity (%)Dew Point (ºf)Barometer (inHG)Wind Speed (mph)Wind DirectionWind Gust (mph)1hr. Precip / Rain Total (in.)Snow Depth
11:13 PM413817.36-13.9sse19.12--
10:13 PM423717.64-13.9s18.25--
9:13 PM423617-10.43sse15.64--
8:13 PM423516.36-12.17s20.86--
7:13 PM433517.24-13.03sse18.25--
6:13 PM433416.57-10.43sse15.64--
5:13 PM443518.13-8.69sse13.03--
4:13 PM483118.83-8.69sse12.17--
3:13 PM503120.57-8.69s13.03--
2:13 PM522819.92-8.69s13.03--
1:13 PM522719.07-9.56s16.51--
12:13 PM522517.28-10.43s17.38--
11:13 AM502414.65-12.17s19.12--
10:13 AM492514.73-13.9sse19.99--
9:13 AM473017.19-13.03sse19.12--
8:13 AM443115.33-12.17s16.51--
7:13 AM423214.3-9.56sse14.77--
6:13 AM413213.43-10.43sse16.51--
5:13 AM423012.84-8.69sse13.03--
4:13 AM422912.08-6.95sse11.3--
3:13 AM422912.08-7.82sse13.03--
2:13 AM432610.49-6.08sse10.43--
1:13 AM413011.97---3.48--
12:13 AM403111.83-3.48nne5.21--
High: 38ºf @4:13 PM    Low: 32ºf @8:13 AM     Approx. Precipitation / Rain Total: in.
Time (PST)Temp. (ºf)Humidity (%)Dew Point (ºf)Barometer (inHG)Wind Speed (mph)Wind DirectionWind Gust (mph)1hr. Precip / Rain Total (in.)Snow Depth
11:13 PM384116.42-2.61nw6.08--
10:13 PM366123.87-4.34nnw8.69--
9:13 PM339732.24-3.48n6.95--
8:13 PM3310033-3.48nnw8.69--
7:13 PM3310033-5.21n7.82--
6:13 PM366324.64-5.21n7.82--
5:13 PM375823.61-3.48nnw7.82--
4:13 PM389436.43-2.61wnw6.08--
3:13 PM3610036-4.34n8.69--
2:13 PM3610036-6.95n11.3--
1:13 PM3810038-4.34nnw10.43--
12:13 PM3710037-2.61nnw7.82--
11:13 AM3410034-3.48n6.95--
10:13 AM3310033-3.48n13.03--
9:13 AM3310033-4.34n13.9--
8:13 AM3210032-6.08n13.03--
7:13 AM3310033-5.21n13.9--
6:13 AM3310033-5.21n13.03--
5:13 AM3310033-5.21n13.03--
4:13 AM3310033-6.08n13.9--
3:13 AM3210032-4.34n10.43--
2:13 AM3310033-3.48n13.9--
1:13 AM3610036-3.48n11.3--
12:13 AM3510035-2.61n13.03--
High: 51ºf @11:13 AM    Low: 36ºf @11:13 PM     Approx. Precipitation / Rain Total: in.
Time (PST)Temp. (ºf)Humidity (%)Dew Point (ºf)Barometer (inHG)Wind Speed (mph)Wind DirectionWind Gust (mph)1hr. Precip / Rain Total (in.)Snow Depth
11:13 PM3610036-3.48n10.43--
10:13 PM3610036-4.34n10.43--
8:13 PM3710037-6.08n10.43--
7:13 PM379034.34-5.21nne9.56--
6:13 PM389235.89-0.87wnw6.95--
5:13 PM389737.23-5.21n8.69--
4:13 PM434623.65-0.87nne6.95--
3:13 PM443719.42-2.61nne6.95--
2:13 PM473520.78-3.48ne7.82--
1:13 PM473218.69-4.34n8.69--
12:13 PM503120.57-3.48nnw7.82--
11:13 AM512617.34-3.48nnw7.82--
10:13 AM502616.48-2.61nw6.08--
9:13 AM483219.57-2.61nw6.95--
8:13 AM453619.67-4.34n6.95--
7:13 AM424120.03-3.48nnw6.08--
6:13 AM413314.13-2.61nnw6.08--
5:13 AM422710.47-2.61nnw6.08--
4:13 AM404017.65-1.74nw4.34--
3:13 AM403111.83-2.61sse10.43--
2:13 AM393413.04-7.82sse12.17--
1:13 AM393614.34-8.69sse13.03--
12:13 AM394016.75-10.43sse17.38--
High: 46ºf @1:13 PM    Low: 38ºf @2:13 AM     Approx. Precipitation / Rain Total: in.
Time (PST)Temp. (ºf)Humidity (%)Dew Point (ºf)Barometer (inHG)Wind Speed (mph)Wind DirectionWind Gust (mph)1hr. Precip / Rain Total (in.)Snow Depth
11:13 PM404118.22-11.3sse15.64--
10:13 PM404017.65-8.69sse12.17--
9:13 PM394117.32-7.82sse12.17--
8:13 PM404017.65-8.69sse13.03--
7:13 PM403816.47-7.82sse12.17--
6:13 PM413716.75-5.21sse9.56--
5:13 PM423516.36-6.95s14.77--
4:13 PM443115.33-11.3s19.12--
3:13 PM453015.45-14.77s22.59--
2:13 PM463117.08-15.64s23.46--
1:13 PM463217.81-17.38s30.41--
12:13 PM463117.08-19.12s33.02--
11:13 AM443417.46-21.72s31.28--
10:13 AM443518.13-20.86s32.15--
9:13 AM433416.57-21.72s30.41--
8:13 AM423415.69-16.51sse23.46--
7:13 AM393614.34-15.64sse24.33--
6:13 AM383814.68-15.64sse23.46--
5:13 AM383915.27-13.9sse19.99--
4:13 AM384116.42-13.03sse23.46--
3:13 AM384317.51-15.64sse24.33--
2:13 AM384518.57-15.64sse22.59--
1:13 AM394820.99-16.51sse22.59--
12:13 AM394921.48-14.77sse20.86--
High: 44ºf @1:13 PM    Low: 31ºf @5:13 AM     Approx. Precipitation / Rain Total: in.
Time (PST)Temp. (ºf)Humidity (%)Dew Point (ºf)Barometer (inHG)Wind Speed (mph)Wind DirectionWind Gust (mph)1hr. Precip / Rain Total (in.)Snow Depth
11:13 PM394921.48-13.03sse18.25--
10:13 PM405123.35-13.03sse17.38--
9:13 PM405123.35-13.03sse15.64--
8:13 PM405223.81-11.3sse15.64--
7:13 PM405424.71-8.69sse12.17--
6:13 PM397030.06-6.95se11.3--
5:13 PM407532.73-8.69se11.3--
4:13 PM4010040-4.34sse6.08--
3:13 PM419740.21-3.48sse7.82--
2:13 PM439441.39-3.48se7.82--
1:13 PM449442.39-4.34se7.82--
12:13 PM438338.2-6.08sse9.56--
11:13 AM428337.22-6.08sse8.69--
10:13 AM419639.95-3.48sse6.08--
9:13 AM397732.41-1.74e4.34--
8:13 AM368933.08-3.48nne6.08--
7:13 AM3310033-1.74nnw4.34--
6:13 AM3110031-1.74nnw4.34--
5:13 AM3110031-1.74nw4.34--
4:13 AM3210032-1.74nnw5.21--
3:13 AM3210032-1.74n6.08--
2:13 AM3210032-3.48n5.21--
1:13 AM3210032-3.48n5.21--
12:13 AM3210032-1.74nnw5.21--
High: 37ºf @4:13 PM    Low: 32ºf @1:13 AM     Approx. Precipitation / Rain Total: in.
Time (PST)Temp. (ºf)Humidity (%)Dew Point (ºf)Barometer (inHG)Wind Speed (mph)Wind DirectionWind Gust (mph)1hr. Precip / Rain Total (in.)Snow Depth
11:13 PM3210032-3.48nw5.21--
10:13 PM3310033-2.61n8.69--
9:13 PM3410034-2.61n10.43--
8:13 PM3410034-3.48n9.56--
7:13 PM3410034-3.48nnw10.43--
6:13 PM3410034-3.48n13.03--
5:13 PM3410034-6.08n10.43--
4:13 PM3710037-3.48nw7.82--
3:13 PM3510035-4.34n8.69--
2:13 PM3510035-5.21n11.3--
1:13 PM3610036-4.34n12.17--
12:13 PM3710037-4.34nnw12.17--
11:13 AM3510035-5.21n13.9--
10:13 AM3610036-4.34n10.43--
9:13 AM3510035-2.61n7.82--
8:13 AM3310033-1.74nnw8.69--
7:13 AM3210032-1.74nnw11.3--
6:13 AM3210032-6.95wnw16.51--
5:13 AM3210032-4.34n10.43--
4:13 AM3210032-3.48nne7.82--
3:13 AM3210032-2.61nne3.48--
2:13 AM3210032---8.69--
1:13 AM3210032-0.87ene6.95--
12:13 AM3310033-1.74nnw5.21--
High: 49ºf @9:13 AM    Low: 32ºf @11:13 PM     Approx. Precipitation / Rain Total: in.
Time (PST)Temp. (ºf)Humidity (%)Dew Point (ºf)Barometer (inHG)Wind Speed (mph)Wind DirectionWind Gust (mph)1hr. Precip / Rain Total (in.)Snow Depth
11:13 PM3210032-1.74ene9.56--
10:13 PM349933.75-3.48ssw8.69--
9:13 PM359032.37-4.34w17.38--
8:13 PM3510035-5.21sw16.51--
7:13 PM3410034-3.48ne7.82--
6:13 PM3510035-5.21n16.51--
5:13 PM398635.17-12.17w26.94--
4:13 PM3710037-8.69wsw14.77--
3:13 PM3810038-8.69ne15.64--
2:13 PM4110041-6.95ene26.07--
1:13 PM4210042-16.51ssw50.4--
12:13 PM457437.22-40.84ssw69.52--
11:13 AM486436.41-46.92ssw72.13--
10:13 AM485432.16-37.37ssw61.7--
9:13 AM496035.73-37.37ssw59.96--
8:13 AM477138.09-32.15s55.61--
7:13 AM4410044-35.63ssw51.27--
6:13 AM4110041-36.5ssw47.79--
5:13 AM3910039-28.68s38.23--
4:13 AM3810038-18.25s23.46--
3:13 AM3810038-10.43sse16.51--
2:13 AM3910039-8.69se14.77--
1:13 AM4010040-8.69sse15.64--
12:13 AM3910039-4.34s11.3--
High: 52ºf @1:13 PM    Low: 38ºf @9:13 PM     Approx. Precipitation / Rain Total: in.
Time (PST)Temp. (ºf)Humidity (%)Dew Point (ºf)Barometer (inHG)Wind Speed (mph)Wind DirectionWind Gust (mph)1hr. Precip / Rain Total (in.)Snow Depth
11:13 PM3910039-3.48wsw13.03--
10:13 PM3910039-0.87ne8.69--
9:13 PM3810038-1.74ene6.95--
8:13 PM4010040-1.74se6.95--
7:13 PM4110041-2.61ese7.82--
6:13 PM4210042-2.61ne10.43--
5:13 PM4210042-2.61ene7.82--
4:13 PM4210042-6.08n13.03--
3:13 PM4510045-6.08nne13.03--
2:13 PM4510045-4.34-13.03--
1:13 PM528748.25-6.08ssw19.12--
12:13 PM4910049-12.17sse22.59--
11:13 AM4810048-13.9sse22.59--
10:13 AM4910049-11.3sse23.46--
9:13 AM4710047-14.77ssw20.86--
8:13 AM4610046-5.21se9.56--
7:13 AM4510045-5.21sse12.17--
6:13 AM4410044-6.95s13.9--
5:13 AM4610046-11.3w20.86--
4:13 AM4410044-6.08wnw11.3--
3:13 AM4310043-0.87s7.82--
2:13 AM4310043-0.87nne8.69--
1:13 AM4410044-5.21sse8.69--
12:13 AM4510045---4.34--
High: 48ºf @6:13 PM    Low: 44ºf @11:13 PM     Approx. Precipitation / Rain Total: in.
Time (PST)Temp. (ºf)Humidity (%)Dew Point (ºf)Barometer (inHG)Wind Speed (mph)Wind DirectionWind Gust (mph)1hr. Precip / Rain Total (in.)Snow Depth
11:13 PM4410044-3.48ne6.08--
10:13 PM4710047-1.74n5.21--
9:13 PM4710047-0.87wnw6.08--
8:13 PM4710047-3.48ssw7.82--
7:13 PM4710047-1.74w6.08--
6:13 PM4810048-0.87ese2.61--
Past Weather Disclaimer Note regarding "Approx. Precipitation / Rain Total"

Currently

Fog and Breezy 36°F
29.96in
Barometer
97%
Humidity
South 23.0mph
Wind
Fog and Breezy

Past Weather Nearby

More Local Information

Bookmark and Share

Go Ad Free - Become a Member